Погода в Серебряных Ключах

Россия / Тульская область     54°14′59″N   37°55′18″E
темп.,
°C
ветер,
м/с
пор.,
м/с
влажн.,
%
обл.,
%
осадки,
мм/ч
давл.,
гПа
погр.,
м
20 мая, пт
пт2000:00+6сз359275 0.0 101594
03:00+5ссз369430 0.1 1015180
06:00+5ссв48936 0.0 1017258
09:00+8ссв56635 0.0 1018812
12:00+10с575125 0.0 10181712
15:00+11ссв454515 0.0 10181866
18:00+10св3457100 0.0 10161069
21:00+6всв2263100 0.0 101722
21 мая, сб
сб2100:00+4вюв2263100 0.0 101613
03:00+3вюв3369100 0.0 101529
06:00+4юв2475100 0.0 1014136
09:00+9вюв455999 0.0 1012709
12:00+12юв444916 0.0 10111625
15:00+13юв334776 0.0 10101984
18:00+12вюв335696 0.0 10081659
21:00+7в3574100 0.0 100880
22 мая, вс
вс2200:00+6юв2474100 0.0 100769
03:00+5всв3576100 0.0 100693
06:00+5всв4878100 0.0 1004216
09:00+9всв6768100 0.0 1004793
12:00+11всв665869 0.4 10031562
15:00+11ссв665295 0.5 10041673
18:00+11ссв46575 0.0 10041482
21:00+6ссв46735 0.0 100686
23 мая, пн
пн2300:00+3ссв35745 0.0 100675
03:00+2ссз35775 0.0 100774
06:00+3ссз49725 0.0 1008233
09:00+9ссз58540 0.0 10071345
12:00+11ссз674457 0.0 10072106
15:00+13ссз684399 0.0 10062259
18:00+12сз5755100 0.0 1006965
21:00+6сз477232 0.0 1008107
24 мая, вт
вт2400:00+5сз4767100 0.0 1009113
03:00+4сз4864100 0.0 1010149
06:00+6сз51260100 0.0 1010412
09:00+9сз61054100 0.0 1010800
12:00+12ссз7104099 0.0 10111459
15:00+13ссз7103867 0.0 10111816
18:00+12с595358 0.0 10121286
21:00+6св368272 0.0 101591